User: anonymous   Login
Location: G�ndlingen
(48.0142°N, 7.6396°E)
Time: 09:39:50
(UTC+00:00)
Language:

NOSS 0 Rocket - Orbit

View from above orbital plane
View from above orbital plane
View from above satellite
View from above satellite

Ground track
Ground track

The orbit data is extracted from the following two-line orbital elements,

1  5679U 71110B   20269.86556956 -.00000028 +00000-0 +20448-4 0  9999
2  5679 069.9962 070.5256 0015466 271.5494 088.3835 13.85342903079828
Epoch (UTC): 25 September 2020 20:46:25
Eccentricity: 0.0015466
inclination: 69.9962°
perigee height: 933 km
apogee height: 956 km
right ascension of ascending node: 70.5256°
argument of perigee: 271.5494°
revolutions per day: 13.85342903
mean anomaly at epoch: 88.3835°
orbit number at epoch: 7982

The dashed part of the orbit path shows where the satellite is in the earth's shadow,  

DLR